Regional Weather Roundup
Issued by NWS

Home | Current Version | Previous Version | Text Only | Print | Product List | Glossary Off
Versions: 1 2 3 4 5 6 7 8 9 10 11 12 13 14 15 16 17 18 19 20 21 22 23 24 25 26 27 28 29 30 31 32 33 34 35 36 37 38 39 40 41 42 43 44 45 46 47 48 49 50

000
ASUS44 KMEG 282200
RWRTN
TENNESSEE HOURLY STATE WEATHER ROUNDUP
NATIONAL WEATHER SERVICE MEMPHIS TN
500 PM CDT THU APR 28 2016

TNZ002-004-019-021-049-052-054-088>092-282300-
WEST TENNESSEE

CITY           SKY/WX    TMP DP  RH WIND       PRES   REMARKS
MEMPHIS INTL   MOSUNNY   85  53  33 NW5       29.93S
NWS MEMPHIS      N/A     85 N/A N/A MISG        N/A
JACKSON        SUNNY     82  51  34 W6        29.92S
DYERSBURG      SUNNY     82  48  30 SW9       29.92F
LEXINGTON      SUNNY     82  52  34 W9        29.92R
$$

TNZ008-025-027-028-033-062-065-066-282300-
NORTH MIDDLE TENNESSEE

CITY           SKY/WX    TMP DP  RH WIND       PRES   REMARKS
NASHVILLE      MOSUNNY   83  52  34 W8        29.90R
CLARKSVILLE    SUNNY     79  49  34 SW9G18    29.90S
COOKEVILLE     PTSUNNY   82  61  47 W9        29.90S
CROSSVILLE     MOSUNNY   76  54  46 W17G23    29.95S
$$

TNZ061-075-076-078-094-096-097-282300-
SOUTH MIDDLE TENNESSEE

CITY           SKY/WX    TMP DP  RH WIND       PRES   REMARKS
TULLAHOMA      MOSUNNY   81  59  47 W10       29.94R
WINCHESTER     SUNNY     82  57  42 W10       29.93R
MCMINNVILLE    SUNNY     81  61  50 SW13      29.92S
COLUMBIA       SUNNY     84  55  37 W9        29.90S
SHELBYVILLE    MOSUNNY   86  55  35 SW12      29.92R
$$

TNZ017-018-042-046-047-282300-
NORTHEAST TENNESSEE

CITY           SKY/WX    TMP DP  RH WIND       PRES   REMARKS
TRI CITIES     MOSUNNY   79  54  41 SW18G24   29.88S
$$

TNZ012-013-036-069-073-074-282300-
CENTRAL EAST TENNESSEE

CITY           SKY/WX    TMP DP  RH WIND       PRES   REMARKS
KNOXVILLE      MOSUNNY   80  55  42 SW13      29.89S
OAK RIDGE      MOSUNNY   83  55  38 VRB6      29.90R
GATLINBURG     CLEAR     81  52  36 W10       29.88F
$$

TNZ083-085-099-282300-
SOUTHEAST TENNESSEE

CITY           SKY/WX    TMP DP  RH WIND       PRES   REMARKS
CHATTANOOGA    MOSUNNY   84  55  36 W7        29.91R
$$

SKY/WX REPORTED AS FAIR MEANS FEW OR NO CLOUDS BELOW
12 THOUSAND FEET.




USA.gov is the U.S. government's official web portal to all federal, state and local government web resources and services.